Location: Newark
(42.7133°N, 87.7910°W)
Time: 23:01:37
(UTC+00:00)

SR - Pass Details

Date: 23 October 2019
Orbit: 574 x 882 km, 66.7° (Epoch: 11 November)

Event Time Altitude Azimuth Distance (km) Brightness Sun altitude
Exits shadow 09:33:05 - 344° (NNW) 3,117 ? -30.0°
Reaches altitude 10° 09:36:22 10° 10° (N) 2,525 ? -29.5°
Maximum altitude 09:38:21 12° 30° (NNE) 2,417 ? -29.1°
Drops below altitude 10° 09:40:21 10° 50° (NE) 2,543 ? -28.7°
Sets 09:44:54 0° 81° (E) 3,479 ? -27.9°
